Regional Weather Roundup
Issued by NWS Lake Charles, LA

Home | Current Version | Previous Version | Text Only | Print | Product List | Glossary On
Versions: 1 2 3 4 5 6 7 8 9 10 11 12 13 14 15 16 17 18 19 20 21 22 23 24 25 26 27 28 29 30 31 32 33 34 35 36 37 38 39 40 41 42 43 44
000
ASUS44 KLCH 260410
RWRLCH
RWRLCH
REGIONAL WEATHER ROUNDUP
NATIONAL WEATHER SERVICE LAKE CHARLES LA
1000 PM CST THU DEC 25 2014

Note: "fair" indicates few or no clouds below 12,000 feet with no
significant weather and/or obstructions to visibility.


ACROSS SOUTHEAST TEXAS

CITY           SKY/WX    TMP DP  RH WIND       PRES   REMARKS
BEAUMONT       MOCLDY    52  49  89 E7        30.08F
BEAUMONT CITY    N/A     53  50  90 E5        30.08F
ORANGE         MOCLDY    53  50  90 E6        30.11S
JASPER         MOCLDY    49  45  87 E8        30.11S
$$

ACROSS CENTRAL LOUISIANA

CITY           SKY/WX    TMP DP  RH WIND       PRES   REMARKS
LEESVILLE      CLOUDY    47  43  85 SE10      30.12R
FULLERTON        N/A     50  41  71 VRB6      30.10S
ALEXANDRIA INT MOCLDY    44  39  82 SE6       30.13S
ESLER FIELD    MOCLDY    41  37  86 CALM      30.15R
DERIDDER         N/A     48  43  81 CALM      30.14S
OAKDALE        CLOUDY    46  42  85 SE5       30.15R
OPELOUSAS        N/A     47  39  74 S12       30.17R
$$

ACROSS SOUTHWEST AND SOUTH CENTRAL LOUISIANA

CITY           SKY/WX    TMP DP  RH WIND       PRES   REMARKS
SULPHUR        MOCLDY    53  49  86 E9        30.12S
LAKE CHARLES   MOCLDY    51  47  86 SE12      30.11F
CHENNAULT INT  MOCLDY    49  46  90 E9        30.12F
CAMERON PHI    MOCLDY    61  54  77 SE15G22   30.14R
DEQUINCY         N/A     48  46  93 E3        30.11F
JENNINGS         N/A     50  43  77 SE13      30.15R
LAFAYETTE      PTCLDY    49  40  71 S8        30.17R
NEW IBERIA     MOCLDY    47  41  80 SE8       30.19R
ABBEVILLE        N/A     49  42  77 SE6       30.18R
PATTERSON      PTCLDY    46  41  81 SE6       30.20S
SALT POINT       N/A     60  45  57 E3        30.18S
$$

SELECTED SITES ACROSS THE REGION

CITY           SKY/WX    TMP DP  RH WIND       PRES   REMARKS
HOUSTON BUSH   CLOUDY    52  47  83 SE3       30.05S
HOUSTON HOBBY  CLOUDY    54  49  83 SE5       30.06R
GALVESTON      CLOUDY    62  53  72 SE15      30.07F
COLLEGE STAT   CLOUDY    54  46  74 SE12      30.03S
CONROE         PTCLDY    49  45  86 CALM      30.06R
HUNTSVILLE     PTCLDY    53  46  77 SE3       30.04S
LUFKIN         CLEAR     50  44  80 SE8       30.07S
SHREVEPORT     PTCLDY    49  42  77 SE12      30.08R
MONROE         PTCLDY    43  36  76 S3        30.16R
NATCHEZ MS     MOCLDY    45  36  70 S5        30.16S
BATON ROUGE    CLOUDY    48  40  73 SE6       30.18R
N.O. INTL ARPT MOCLDY    48  41  76 E7        30.20F
SLIDELL        MOCLDY    40  37  89 CALM      30.21S
$$

MARINE REPORTS

STATION/POSITION TIME  TEMP    WIND        PRES    VSBY  WAVE
                       AIR SEA DIR/SP/G                  HT/PER
                 (UTC) (F)     (DEG/KT/KT) (MB)    (MI)  (FT/S)
BUOY 30 S HIGH I 0400   64 60  160/ 16/ 19 1017.7S         4/ 5
SEA RIM ST PARK  0400   61     150/ 11/ 13 1019.3S
PORT ARTHUR      0400      58  110/  2/  4 1018.9S
SABINE PASS N    0400   60 59  170/ 10/ 12 1018.7S
TEXAS POINT      NOT AVBL
CALCASIEU PASS   0400   60 58  160/ 12/ 17   N/A
LK CHARLES BEACH 0400   51 56              1019.7F
MARSH ISLAND     NOT AVBL
FRESH WATER LOCK 0400   55 58  120/ 12/ 17 1021.1S
AMERADA PASS     0400   50 51  100/  4/  5 1022.1F
$$


USA.gov is the U.S. government's official web portal to all federal, state and local government web resources and services.